Location: Arboyeti
(42.1122°N, 44.6017°E)
Time: 05:26:13
(UTC+00:00)

ISS - Pass Details

Date: 26 September 2021
Orbit: 417 x 423 km, 51.6° (Epoch: 18 October)

Event Time Altitude Azimuth Distance (km) Brightness Sun altitude
Rises 15:49:40 0° 295° (WNW) 2,363 1.7 -11.5°
Reaches altitude 10° 15:52:22 10° 318° (NW) 1,500 -0.2 -12.0°
Maximum altitude 15:54:33 16° 358° (N) 1,187 -1.3 -12.4°
Drops below altitude 10° 15:56:44 10° 39° (NE) 1,502 -1.2 -12.8°
Enters shadow 15:57:06 - 43° (NE) 1,599 -1.1 -12.9°
